OpenBCM V1.13 (Linux)

Packet Radio Mailbox

DB0FHN

[JN59NK Nuernberg]

 Login: GUEST





  
I6KZR  > KEPLER   19.02.03 22:49l 317 Lines 15752 Bytes #999 (0) @ WW
BID : 24675_IK6WID
Read: DK7NS DB0FHN GUEST
Subj: 2L Keplerian Elements #050
Path: DB0FHN<DB0RGB<OK0PPL<RZ6HXA<SP7MGD<ON0BEL<IK6PYS<IK6PYS<I6ZLO<IK6WID
Sent: 030219/2032Z @:IK6WID.#AP.IMAR.ITA.EU #:24675 [MONTE URANO]  FBB7.00i
From: I6KZR@IK6WID.#AP.IMAR.ITA.EU
To  : KEPLER@WW


OSCAR 7
1 07530U 74089B   03049.13304631 -.00000029  00000-0  10000-3 0  1505
2 07530 101.7614  96.9239 0012270  78.8215 281.4235 12.53564389293137
GOES 2
1 10061U 77048A   03041.64344854 -.00000146  00000-0  00000+0 0   846
2 10061  14.1321  13.4869 0012973 199.7553 160.2330  0.99401033 38751
GOES 3
1 10953U 78062A   03048.93652485 -.00000097  00000-0  00000+0 0  9264
2 10953  13.4099  17.2364 0005564 342.3042  17.7219  1.00279199 43492
GOES 6
1 14050U 83041A   03048.05134892  .00000040  00000-0  10000-3 0  4244
2 14050  10.4035  35.5570 0004045 342.0560  17.9911  1.00302445130622
OSCAR 10
1 14129U 83058B   03050.37921519 -.00000303  00000-0  10000-3 0  9177
2 14129  25.9543 164.1610 6026559 329.0466   6.3565  2.05869657120083
OSCAR 11 (UoSAT 2)
1 14781U 84021B   03050.22057023  .00001870  00000-0  26638-3 0   743
2 14781  98.1181  24.1478 0008606 203.0285 157.0541 14.78004822 16339
NOAA 10
1 16969U 86073A   03049.89893436  .00000215  00000-0  10639-3 0  6651
2 16969  98.7300  44.0081 0013432  86.2840 273.9877 14.27065138853958
GOES 7
1 17561U 87022A   03048.62060979  .00000046  00000-0  10000-3 0  8558
2 17561   7.5984  55.5542 0005433 262.3589 233.9782  1.00252868 41732
COSMOS 1861
1 18129U 87054A   03043.82529073  .00000092  00000-0  83428-4 0  1993
2 18129  82.9262 150.8051 0010159 242.7255 117.2863 13.72700628783726
EUTELSAT 1-F4 (ECS 4)
1 18351U 87078B   03044.89056880 -.00000185  00000-0  00000+0 0   404
2 18351   7.1880  58.6916 0006913 200.5719 159.5335  0.98689370 42638
NOAA 11
1 19531U 88089A   03049.86540457  .00000222  00000-0  13898-3 0  5036
2 19531  98.9011 131.2472 0011517 197.9846 162.0919 14.14538467742844
ASTRA 1A
1 19688U 88109B   03049.87734355  .00000030  00000-0  10000-3 0  5764
2 19688   1.3890  94.7923 0004583 223.6738 150.9625  1.00271946 32205
OSCAR 14 (UOSAT 3)
1 20437U 90005B   03049.70846109  .00000176  00000-0  82003-4 0  1679
2 20437  98.2733  93.3157 0010121 198.2743 161.8077 14.31238591682516
OSCAR 15 (UOSAT 4)
1 20438U 90005C   03046.64987680  .00000116  00000-0  60390-4 0  7765
2 20438  98.2480  79.5362 0009039 220.0855 139.9661 14.30197311681746
OSCAR 16 (PACSAT)
1 20439U 90005D   03049.16415571  .00000209  00000-0  94312-4 0  8531
2 20439  98.3176 104.4791 0010320 206.7224 153.3434 14.31472440682479
OSCAR 17 (DOVE)
1 20440U 90005E   03050.55084886  .00000238  00000-0  10464-3 0  7287
2 20440  98.3375 109.7029 0010314 201.7424 158.3330 14.31751247682749
OSCAR 18 (WEBERSAT)
1 20441U 90005F   03050.19339292  .00000192  00000-0  87813-4 0   153
2 20441  98.3331 108.5692 0011155 202.9733 157.0952 14.31554490682674
OSCAR 19 (LUSAT)
1 20442U 90005G   03049.68253852  .00000221  00000-0  98272-4 0  9662
2 20442  98.3479 111.1040 0011241 204.7721 155.2920 14.31717584682656
JAS 1B (FUJI 2)
1 20480U 90013C   03048.84417454  .00000017  00000-0  11067-3 0  4631
2 20480  99.0469  11.7227 0540649   5.5202 355.1562 12.83330367610421
HST
1 20580U 90037B   03050.16002814  .00000805  00000-0  53417-4 0  3333
2 20580  28.4690  34.2359 0004058 269.3998 198.4633 14.97825617502725
EUTELSAT 2-F1
1 20777U 90079B   03049.79025269 -.00000102  00000-0  10000-3 0   331
2 20777   3.5024  84.5573 0001409 298.6015 125.6374  1.00271366 26109
FENGYUN 1B
1 20788U 90081A   03050.17597216 -.00000018  00000-0  17330-4 0  8851
2 20788  99.0256  32.3495 0015395 226.8017 133.1862 14.02134896637629
EUTELSAT 2-F2
1 21056U 91003B   03046.68872131  .00000120  00000-0  10000-3 0  6181
2 21056   2.7246  87.9532 0003121 260.7722  93.0131  1.00277947 31844
INFORMATOR 1
1 21087U 91006A   03044.17346432  .00000084  00000-0  71824-4 0  5988
2 21087  82.9434 321.4015 0033772 266.6023  93.1271 13.74925957604143
COSMOS 2123
1 21089U 91007A   03048.88547271  .00000088  00000-0  76971-4 0  4911
2 21089  82.9227 181.8841 0027939 290.2481  69.5671 13.74404501603696
ASTRA 1B
1 21139U 91015A   03049.00000000  .00000116  00000-0  10000-3 0  1611
2 21139   0.0122 319.8851 0002995  65.1991 141.6493  1.00273184 32182
METEOSAT 5 (MOP 2)
1 21140U 91015B   03047.68262738  .00000020  00000-0  10000-3 0  7219
2 21140   5.6248  69.9570 0002249 156.5628 228.2831  1.00273744 46038
NOAA 12
1 21263U 91032A   03049.90493397  .00000426  00000-0  20018-3 0  9726
2 21263  98.6262  39.5259 0013500  24.2076 335.9735 14.25082834611260
OSCAR 22 (UoSAT 5)
1 21575U 91050B   03050.20306704  .00000434  00000-0  15319-3 0  7299
2 21575  98.1410  42.2926 0008291 126.4085 233.7868 14.39156815608370
METEOR 3-5
1 21655U 91056A   03049.90210429  .00000051  00000-0  10000-3 0  5001
2 21655  82.5545  38.6226 0012703 193.9202 166.1572 13.16980685553521
UARS
1 21701U 91063B   03049.36326089  .00001002  00000-0  93013-4 0  8276
2 21701  56.9816  32.8836 0004623 114.7988 245.3506 15.02860713625686
EUTELSAT 2-F3
1 21803U 91083A   03042.92968172  .00000136  00000-0  10000-3 0  5224
2 21803   2.5812  89.1760 0003183 279.4172 129.1437  1.00276864 36934
INMARSAT 2-F3
1 21814U 91084B   03049.42501748  .00000108  00000-0  10000-3 0  6186
2 21814   1.7439  58.4331 0002902 281.3806 179.1293  1.00269684 40896
INMARSAT 2-F4
1 21940U 92021B   03044.69223701 -.00000346  00000-0  10000-3 0  5715
2 21940   2.3861  19.3937 0002023 315.0988 166.9456  1.00266626 39638
EUTELSAT 2-F4
1 22028U 92041B   03044.39942538 -.00000094  00000-0  10000-3 0  3312
2 22028   1.7034  92.5617 0006121 233.1956 308.7354  1.00271910 31724
OSCAR 23 (KITSAT 1)
1 22077U 92052B   03044.51429948 -.00000037  00000-0  10000-3 0  1547
2 22077  66.0872 136.3141 0015528 275.1186  84.8061 12.86408248493656
ASTRA 1C
1 22653U 93031A   03049.00000000  .00000116  00000-0  10000-3 0  7888
2 22653   0.0122 319.8851 0002995  65.1991 141.6099  1.00273184 30881
METEOR 2-21
1 22782U 93055A   03049.60690431  .00000143  00000-0  11640-3 0  5212
2 22782  82.5450 214.8627 0022127 349.5884  10.4799 13.83532848478095
KITSAT B
1 22825U 93061C   03049.54247283  .00000186  00000-0  89727-4 0  4895
2 22825  98.2748  79.2404 0007446 258.8181 101.2167 14.28943756489872
POSAT 1
1 22826U 93061D   03050.55290949  .00000207  00000-0  97809-4 0  3125
2 22826  98.2762  81.3165 0008030 257.9086 102.1206 14.29167221490064
ITAMSAT
1 22828U 93061F   03049.55307587  .00000183  00000-0  87657-4 0  4283
2 22828  98.2712  80.6295 0009094 236.4642 123.5678 14.29508771458128
EYESAT A
1 22829U 93061G   03050.54201427  .00000284  00000-0  12633-3 0  4543
2 22829  98.2721  82.1750 0008954 233.1945 126.8425 14.29769880490195
METEOSAT 6
1 22912U 93073B   03041.98342015  .00000074  00000-0  00000+0 0  6759
2 22912   2.6574  82.5051 0000882 234.1423 187.7120  1.00280377 32223
GOES 8
1 23051U 94022A   03050.15062644 -.00000256  00000-0  00000+0 0  6129
2 23051   0.2983 103.0532 0001115 300.6345  84.4584  1.00277254 39810
ASTRA 1D
1 23331U 94070A   03048.86015624  .00000136  00000-0  00000+0 0  8188
2 23331   0.0599 221.2811 0003631 131.7762 128.1823  1.00275415 30861
RADIO ROSTO
1 23439U 94085A   03049.29359592 -.00000042  00000-0  24083-5 0  6825
2 23439  64.8151  41.9255 0146804 115.2566 246.3616 11.27547528335565
NOAA 14
1 23455U 94089A   03049.89893128  .00000178  00000-0  11988-3 0  5265
2 23455  99.1868  68.4770 0008614 227.2763 132.7684 14.13297944419528
HIMAWARI 5 (GMS 5)
1 23522U 95011B   03049.45419627 -.00000284  00000-0  00000+0 0  1080
2 23522   1.7564  83.3354 0000592  87.5970 280.6985  1.00278678 28891
HOT BIRD 1
1 23537U 95016B   03044.99704955  .00000091  00000-0  10000-3 0  5349
2 23537   0.0294  58.1907 0015353 318.4019 138.8041  1.00273188 28926
GOES 9
1 23581U 95025A   03050.52477154  .00000120  00000-0  00000+0 0  5227
2 23581   0.2714 277.5767 0011866 252.3616  10.6487  1.00057931 28375
INMARSAT 3-F1
1 23839U 96020A   03049.93915914  .00000011  00000-0  00000+0 0  8696
2 23839   0.0521 348.3427 0006800 355.5781 206.5641  1.00274855 25210
ASTRA 1F
1 23842U 96021A   03049.00000000  .00000116  00000-0  10000-3 0  5609
2 23842   0.0122 319.8851 0002995  65.1991 141.6521  1.00273184 25112
JAS 2
1 24278U 96046B   03049.98530178  .00000027  00000-0  65133-4 0  5611
2 24278  98.5351 201.1475 0350170 215.3253 142.4226 13.52872814321360
UNAMSAT
1 24305U 96052B   03044.53425984  .00000205  00000-0  20364-3 0  6629
2 24305  82.9330 266.5081 0028787 215.8521 144.0702 13.73451134322798
INMARSAT 3-F2
1 24307U 96053A   03048.16355904 -.00000126  00000-0  00000+0 0   829
2 24307   0.0603  13.0422 0005875 324.1064 212.9403  1.00272441 23607
HOT BIRD 2
1 24665U 96067A   03048.87050337  .00000083  00000-0  10000-3 0  3426
2 24665   0.0653 283.7450 0008076  40.1466 149.8629  1.00273265 23257
INMARSAT 3-F3
1 24674U 96070A   03049.33485422  .00000035  00000-0  10000-3 0  9893
2 24674   0.0843 302.0903 0003849   6.2845 138.0873  1.00271118 22584
GOES 10
1 24786U 97019A   03049.28975103  .00000084  00000-0  00000+0 0  5508
2 24786   0.1383 105.8324 0001902 245.7804 125.6325  1.00259750 21331
INMARSAT 3-F4
1 24819U 97027A   03050.02990500 -.00000290  00000-0  10000-3 0  8830
2 24819   0.0531 291.8970 0004037  38.5648 134.8611  1.00269201 21018
FENGYUN 2A
1 24834U 97029A   03048.63821909 -.00000196  00000-0  00000+0 0  9616
2 24834   2.5683  88.4479 0001309 219.4769 154.6609  1.00282677 20835
HOT BIRD 3
1 24931U 97049A   03048.87050337  .00000083  00000-0  10000-3 0  4255
2 24931   0.0903 263.3983 0010427  71.2882 139.0355  1.00274051 20074
METEOSAT 7
1 24932U 97049B   03049.88293497 -.00000003  00000-0  00000+0 0  2519
2 24932   0.2122  62.6339 0001293 253.9671 150.1955  1.00279754 20021
